Location: Brachbach
(49.1847°N, 9.7240°E)
Time: 11:46:05
(UTC+00:00)

COSMOS 860 DEB - Pass Details

Date: 08 October 2024
Orbit: 890 x 988 km, 64.7° (Epoch: 09 November)

Event Time Altitude Azimuth Distance (km) Brightness Sun altitude
Rises 17:57:04 0° 316° (NW) 3,641 ? -12.7°
Reaches altitude 10° 18:00:00 10° 327° (NNW) 2,709 ? -13.2°
Maximum altitude 18:05:28 29° 27° (NNE) 1,707 ? -14.0°
Enters shadow 18:09:08 18° 74° (ENE) 2,225 ? -14.6°
